Wetbulb
69.74 69.07 68.77 68.58 68.15 68.19 68.91 68.44 66.65 65.84 64.70 63.56 63.46 61.42 59.42 57.52 56.59 55.07 54.03 51.50 50.64 51.09
69.22 69.19 68.79 68.48 68.87 68.55 69.15 66.95 65.51 64.71 63.57 63.31 60.86 59.70 58.10 56.88 54.85 53.79 52.03 50.72 50.61 49.96
68.23 69.27 69.18 68.78 68.77 68.81 67.97 66.51 64.75 63.83 62.87 60.79 58.97 57.33 57.00 55.00 53.50 51.88 51.66 50.33 48.01 46.23
68.78 69.17 69.12 68.86 69.16 67.92 66.98 65.26 63.76 63.03 60.91 58.49 57.01 56.16 54.22 52.75 51.84 49.56 47.76 46.62 44.36 42.07
68.61 69.01 68.86 68.90 67.61 67.00 65.49 64.51 63.21 61.27 59.22 57.77 56.92 54.28 53.56 51.83 49.69 46.94 44.28 42.29 41.25 40.54
68.14 68.12 68.70 66.98 66.44 65.34 64.14 62.85 61.24 59.83 57.88 57.16 55.02 53.21 51.74 49.41 47.11 44.65 42.90 40.98 39.22 38.02
67.92 68.14 67.09 65.74 64.37 63.62 62.61 60.59 59.43 58.04 57.07 55.42 53.59 51.61 49.62 46.97 43.04 41.10 39.87 39.30 38.54 38.84
67.76 67.32 65.22 63.62 62.80 61.04 60.66 59.25 57.81 56.40 54.70 53.84 52.04 51.09 48.10 44.82 40.86 39.04 37.89 37.31 37.79 39.59
66.49 64.26 62.62 60.71 60.04 58.65 57.44 55.34 54.92 54.67 53.28 51.75 51.01 47.56 47.80 45.09 40.27 39.26 36.50 33.06 32.68 36.09
63.52 61.09 59.89 58.80 56.06 53.85 52.36 51.67 52.45 51.47 50.39 46.53 44.42 43.46 43.26 42.75 37.12 33.73 32.13 30.86 31.28 34.94
60.14 57.91 54.61 53.32 51.39 50.15 50.03 49.60 49.73 47.26 44.39 42.39 41.43 40.99 40.01 39.43 34.73 33.34 32.05 31.13 30.42 30.31
56.24 53.12 51.88 50.85 48.51 47.52 47.40 46.47 46.76 44.67 43.00 40.07 37.89 38.68 37.51 35.63 33.67 32.61 31.66 32.27 31.73 31.31
51.62 51.83 49.94 48.20 47.07 45.57 45.58 44.57 42.49 41.80 40.17 39.94 36.83 38.66 37.59 35.90 34.35 31.83 31.15 30.51 31.36 38.66
49.82 49.00 47.88 46.38 45.04 44.34 43.21 41.60 39.20 38.12 39.02 40.07 39.78 38.99 38.94 38.17 35.25 33.93 32.44 31.88 31.79 31.67
MSLP
1000.72 1002.14 1002.75 1003.13 1004.18 1005.42 1006.11 1007.19 1008.17 1009.09 1009.97 1010.76 1011.65 1012.61 1013.26 1014.03 1014.61 1015.06 1015.61 1015.97 1016.20 1016.57
1000.64 1001.28 1002.17 1002.78 1003.49 1004.70 1005.75 1007.14 1008.31 1009.01 1009.81 1010.96 1012.14 1012.81 1013.46 1014.30 1014.93 1015.55 1016.06 1016.36 1016.77 1017.14
1000.47 1000.72 1001.34 1002.42 1003.41 1004.29 1005.39 1006.97 1007.99 1008.84 1009.90 1011.34 1012.58 1013.15 1013.76 1014.66 1015.38 1015.88 1016.60 1017.01 1017.15 1017.92
999.67 1000.42 1000.99 1002.24 1003.14 1004.02 1005.13 1006.68 1007.86 1008.78 1010.40 1011.73 1012.84 1013.38 1014.06 1015.02 1015.69 1016.47 1017.13 1017.60 1018.10 1018.56
998.87 999.86 1000.91 1002.01 1003.18 1002.09 1004.58 1006.48 1007.60 1008.79 1010.56 1011.94 1013.01 1013.59 1014.29 1015.15 1016.20 1016.83 1017.57 1018.24 1018.72 1019.09
998.21 999.36 1000.58 1001.88 1002.73 1003.83 1005.29 1007.19 1008.34 1009.18 1010.25 1012.43 1013.30 1013.91 1014.90 1015.86 1016.73 1017.45 1018.32 1018.99 1019.15 1019.62
997.83 998.87 1000.60 1002.15 1002.59 1003.52 1005.87 1006.89 1008.33 1009.82 1010.71 1012.90 1013.94 1014.52 1015.31 1016.24 1017.18 1018.09 1018.96 1019.49 1019.84 1019.78
997.17 999.07 1000.42 1002.08 1002.83 1003.43 1005.79 1006.98 1008.60 1009.89 1012.00 1013.94 1014.56 1015.09 1015.52 1016.66 1017.67 1018.60 1019.19 1020.16 1020.14 1020.20
997.32 999.13 1000.69 1002.10 1003.42 1004.02 1006.24 1007.19 1008.76 1011.20 1013.41 1014.74 1015.28 1015.67 1016.19 1016.69 1018.05 1018.74 1019.35 1020.42 1020.60 1020.91
997.43 998.97 1001.15 1002.39 1003.48 1005.38 1006.84 1008.01 1010.55 1011.86 1014.53 1015.92 1016.58 1016.57 1016.97 1017.69 1018.55 1018.85 1019.96 1020.55 1020.89 1021.29
995.69 998.22 1000.86 1003.33 1004.67 1005.95 1008.01 1009.93 1011.89 1013.37 1015.00 1016.65 1017.67 1017.32 1017.72 1018.42 1019.00 1019.52 1020.54 1020.93 1021.34 1021.80
997.32 997.16 1000.61 1004.58 1006.51 1006.97 1010.46 1011.90 1012.57 1014.15 1016.00 1017.23 1017.94 1017.74 1018.15 1018.77 1019.63 1020.05 1020.84 1021.22 1021.61 1022.10
998.87 1000.17 1001.81 1003.76 1009.97 1007.90 1011.71 1012.43 1013.93 1015.24 1017.25 1017.50 1018.17 1018.31 1018.78 1019.51 1019.75 1020.60 1021.42 1021.62 1021.92 1021.95
1000.39 1003.34 1004.82 1006.48 1008.06 1010.41 1012.59 1014.20 1014.53 1016.59 1017.80 1018.28 1018.53 1019.00 1019.34 1019.76 1019.93 1020.93 1021.60 1022.16 1022.20 1022.40
Wind_Speed
22 12 12 17 15 12 12 11 12 11 12 12 12 10 10 8 7 8 8 9 7 7
14 16 14 15 16 12 12 11 13 14 14 13 12 12 11 8 9 9 8 8 9 8
15 17 17 15 17 17 15 17 16 15 16 14 12 11 12 10 9 11 8 7 11 8
17 17 17 16 16 18 18 18 17 18 16 14 13 12 13 11 12 13 11 9 10 9
20 19 18 17 17 20 19 17 19 18 17 14 13 13 14 14 12 12 11 9 9 8
19 19 19 16 17 18 20 19 17 18 18 14 13 14 14 14 13 12 10 9 9 7
21 20 18 17 21 22 18 20 18 15 17 14 14 15 15 15 14 13 11 10 7 7
19 19 20 19 20 22 22 17 18 18 15 13 13 11 16 15 14 13 11 8 8 8
21 22 22 22 22 21 20 21 21 17 15 12 9 17 22 18 13 11 11 9 7 7
25 25 23 23 24 24 19 19 19 18 15 14 15 23 23 22 12 12 10 9 7 8
28 28 27 24 24 23 19 19 17 17 17 15 13 23 23 22 14 13 10 9 8 8
24 29 31 27 19 24 18 16 18 16 16 15 14 23 21 17 13 12 9 7 7 7
23 20 31 31 19 20 18 18 14 15 12 18 16 20 18 15 10 11 6 6 5 9
26 24 21 27 20 20 18 16 16 14 10 12 14 14 16 13 10 8 6 5 4 5
Wind_Direction
179 176 174 169 165 176 168 156 149 134 126 120 118 115 111 107 103 100 98 96 84 86
181 167 171 168 164 164 155 145 142 134 125 120 122 123 118 112 106 101 95 86 81 77
176 176 167 165 163 165 151 148 141 134 124 124 125 118 115 108 106 97 86 85 82 73
178 175 164 166 165 159 148 144 140 130 127 128 125 121 114 106 104 96 91 81 82 80
171 168 166 164 161 148 140 145 133 129 128 127 126 122 118 111 106 102 95 90 88 75
169 167 162 155 149 139 134 135 129 127 122 128 125 115 107 107 102 95 93 93 87 87
174 164 146 151 141 135 135 131 123 120 114 124 119 115 114 109 103 99 90 81 80 84
163 145 140 144 137 127 133 123 113 108 111 121 121 123 116 111 107 104 95 79 74 66
143 142 137 133 124 114 117 116 109 114 118 119 109 109 115 113 112 104 97 90 70 67
149 136 135 127 118 113 108 104 111 107 111 107 108 104 103 106 103 98 93 90 85 73
135 126 117 111 111 107 107 110 114 111 111 112 111 107 106 105 101 97 93 92 89 86
123 118 110 106 100 106 111 111 109 111 116 120 115 109 107 105 102 96 90 89 87 87
92 106 113 108 119 104 107 107 111 105 116 122 115 109 108 110 108 102 98 77 77 69
87 98 100 109 108 111 111 108 101 105 106 117 122 118 114 110 109 117 106 99 68 46